Location: Krakow
(50.0830°N, 19.9170°E)
Time: 13:37:17
(UTC+02:00)

Tiros 1 - Pass Details

Date: 14 February 2023
Orbit: 627 x 662 km, 48.4° (Epoch: 26 March)

Event Time Altitude Azimuth Distance (km) Brightness Sun altitude
Rises 20:28:21 0° 234° (SW) 2,907 10.9 -34.1°
Enters shadow 20:29:58 - 230° (SW) 2,286 10.2 -34.3°
Reaches altitude 10° 20:30:44 10° 227° (SW) 1,999 - -34.4°
Maximum altitude 20:35:04 43° 157° (SSE) 885 - -35.1°
Drops below altitude 10° 20:39:26 10° 86° (E) 2,004 - -35.7°
Sets 20:41:50 0° 80° (E) 2,915 - -36.0°
